Regional Weather Roundup
Issued by NWS

Home | Current Version | Previous Version | Graphics & Text | Print | Product List | Glossary On
Versions: 1 2 3 4 5 6 7 8 9 10 11 12 13 14 15 16 17 18 19 20 21 22 23 24 25 26 27 28 29 30 31 32 33 34 35 36 37 38 39 40 41 42 43 44 45 46 47 48 49 50
606
ASUS43 KDMX 171701
RWRIA

WEATHER ROUNDUP FOR IOWA
NATIONAL WEATHER SERVICE DES MOINES IA
1100 AM CST FRI NOV 17 2017

NOTE: "FAIR" INDICATES FEW OR NO CLOUDS BELOW 12,000 FEET WITH NO
SIGNIFICANT WEATHER AND/OR OBSTRUCTIONS TO VISIBILITY.

* - THESE STATIONS ARE NOT NWS STATIONS...THUS NOT UNDER NWS
QUALITY CONTROL.  THEY ALSO DO NOT REPORT WEATHER SUCH
AS PRECIPITATION OR FOG.

IAZ001>003-012>014-020>022-031>034-043>046-171800-
   NORTHWEST IOWA

CITY           SKY/WX    TMP DP  RH WIND       PRES   REMARKS
CARROLL *      CLOUDY    48  45  87 S17       29.61F
CHEROKEE *     CLOUDY    54  47  78 S13       29.58S
DENISON *      CLOUDY    52  48  87 S21G26    29.61F
LE MARS *      CLOUDY    55  46  71 SW13      29.58R
ORANGE CITY *  PTSUNNY   55  48  76 SW14      29.58R
SHELDON *      CLOUDY    52  43  71 SW7       29.58R
SIOUX CITY     CLOUDY    56  46  69 S6        29.58F
SPENCER        CLOUDY    50  41  71 S15       29.59S
STORM LAKE *   CLOUDY    50  45  81 S13       29.58F
$$

IAZ055>058-069>071-079>083-090>094-171800-
   SOUTHWEST IOWA

CITY           SKY/WX    TMP DP  RH WIND       PRES   REMARKS
ATLANTIC *     CLOUDY    48  48 100 S9G15     29.63F FOG
AUDUBON *      DRIZZLE   48  46  93 S8        29.64F
CLARINDA *     CLOUDY    50  50 100 S9          N/A  FOG
COUNCIL BLFS * CLOUDY    52  52 100 SE10      29.60F FOG
CRESTON *      CLOUDY    46  46 100 SE13G20   29.67F FOG
HARLAN  *      CLOUDY    50  50 100 S12       29.65F
LAMONI         CLOUDY    50  46  86 S10G21    29.68F
RED OAK *      CLOUDY    50  50 100 SE8       29.63F FOG
SHENANDOAH *   CLOUDY    54  52  94 SE9       29.62F FOG
$$

IAZ047>049-059>061-072>074-084-171800-
   CENTRAL IOWA

CITY           SKY/WX    TMP DP  RH WIND       PRES   REMARKS
AMES           CLOUDY    45  42  89 S17G23    29.67F
ANKENY *       CLOUDY    46  41  81 S15G21    29.69F
BOONE *        CLOUDY    46  41  81 S16G23    29.65F
CHARITON *     CLOUDY    46  41  81 SE10      29.71F
DES MOINES     DRIZZLE   46  43  89 S16       29.69F FOG
GRINNELL*      CLOUDY    40  38  91 SE18      29.73F FOG     WCI  31
KNOXVILLE *    CLOUDY    45  41  87 SE13      29.71F
MARSHALLTOWN   CLOUDY    40  38  93 SE18      29.70F FOG     WCI  31
NEWTON *       CLOUDY    41  39  93 S16G22    29.71F FOG
PELLA *        CLOUDY    43  38  85 SE12G18   29.74F FOG
PERRY *        CLOUDY    46  43  88 S17       29.65F
$$

IAZ004>006-015-016-023>025-035-036-171800-
   NORTH CENTRAL IOWA

CITY           SKY/WX    TMP DP  RH WIND       PRES   REMARKS
ALGONA *       CLOUDY    41  41 100 SE15      29.62F FOG
CLARION *      CLOUDY    41  41 100 S18       29.65F
ESTHERVILLE    CLOUDY    42  38  85 S12       29.61S
FORT DODGE *   CLOUDY    45  40  82 S12G17    29.64F
MASON CITY     LGT SNOW  37  36  96 S18       29.67F FOG     WCI  27
FOREST CITY *  DRIZZLE   39  37  93 S10       29.66F WCI  32
WEBSTER CITY * CLOUDY    43  39  87 S17       29.63F
IOWA FALLS *   CLOUDY    40  39  94 SE17G23   29.70F FOG     WCI  32
$$

IAZ007>011-017>019-026>030-037>042-050>054-066-171800-
   NORTHEAST IOWA

CITY           SKY/WX    TMP DP  RH WIND       PRES   REMARKS
CEDAR RAPIDS   CLOUDY    38  35  89 S18G25    29.77F FOG     WCI  28
CHARLES CITY * CLOUDY    37  37 100 SE15G22   29.72F FOG     WCI  28
CLINTON *      CLOUDY    37  33  85 SE16      29.87F WCI  28
DECORAH *      MIX PCPN  36  34  93 S10G18    29.74F VSB 3/4 WCI  28
DUBUQUE        CLOUDY    35  32  88 S15G25    29.81F FOG     WCI  25
MONTICELLO *   CLOUDY    37  36  93 SE17      29.80F WCI  28
OELWEIN *      CLOUDY    36  36 100 S18       29.75F FOG     WCI  25
WATERLOO       CLOUDY    36  35  96 S18G24    29.73F FOG     WCI  26
$$

IAZ064-065-067-068-078-171800-
   EAST CENTRAL IOWA

CITY           SKY/WX    TMP DP  RH WIND       PRES   REMARKS
DAVENPORT      CLOUDY    39  33  79 S16G24    29.86F WCI  30
IOWA CITY      CLOUDY    39  35  86 SE15      29.82F WCI  31
MT. PLEASANT * CLOUDY    40  35  84 SE17      29.82F HAZE    WCI  31
MUSCATINE *    CLOUDY    39  36  87 S13G21    29.84F WCI  32
QUAD CITIES    CLOUDY    39  34  82 SE14      29.85F WCI  31
$$

IAZ062-063-075>077-085>089-095>099-171800-
   SOUTHEAST IOWA

CITY           SKY/WX    TMP DP  RH WIND       PRES   REMARKS
BURLINGTON     CLOUDY    39  37  92 SE14G21   29.84F FOG     WCI  31
FAIRFIELD *    CLOUDY    43  37  81 SE15G23   29.78F
FORT MADISON * CLOUDY    39  37  93 SE13      29.84F FOG     WCI  32
KEOKUK *       CLOUDY    43  37  81 SE14      29.81F
OSKALOOSA *    CLOUDY    42  38  87 S14       29.76F FOG
OTTUMWA        CLOUDY    44  38  79 SE17      29.75F
WASHINGTON *   CLOUDY    41  39  93 S15G22    29.81F
$$

ABBREVIATIONS USED IN REMARKS
   TC - TEMPERATURES IN CELSIUS
  WCI - WIND CHILL INDEX
   HX - HEAT INDEX
  VSB - VISIBILITY
$$





USA.gov is the U.S. government's official web portal to all federal, state and local government web resources and services.